This demonstration page uses our WeatherBlox Daily Observations layout. Learn more.

Left ArrowRight Arrow

38.89511, -77.03637

Hourly Observations for November 27, 2015

Temp ( °F °C ) Dew Point ( °F °C ) Humidity (%) Winds ( mph kmh ) Pressure ( in mb ) Visibility ( mi km ) Precip ( " mm )
12:52 am 00:52 Clear 46 7.8 44 6.7 93 93 SSE 5 7 30.61 1037 10 16 N/A
1:52 am 01:52 Clear 46 7.8 44 6.7 93 93 N N/A 30.61 1037 10 16 N/A
2:52 am 02:52 Clear 45 7.2 43 6.1 93 93 N N/A 30.61 1037 10 16 N/A
3:32 am 03:32 Clear with Mist and Fog 45 7 43 6 93 93 N N/A 30.59 1036 2 3 N/A
3:42 am 03:42 Clear with Mist and Fog 45 7 43 6 93 93 N N/A 30.59 1036 3 5 N/A
3:52 am 03:52 Clear 44 6.7 43 6.1 96 96 N N/A 30.58 1036 8 13 N/A
4:52 am 04:52 Clear 43 6.1 42 5.6 97 97 N N/A 30.58 1036 8 13 N/A
5:52 am 05:52 Clear 42 5.6 40 4.4 92 92 N N/A 30.58 1035 9 14 N/A
6:52 am 06:52 Mostly Cloudy 43 6.1 41 5 93 93 N N/A 30.55 1035 8 13 N/A
7:52 am 07:52 Cloudy 45 7.2 43 6.1 93 93 WSW 5 7 30.55 1035 7 11 N/A
8:52 am 08:52 Cloudy 47 8.3 45 7.2 93 93 N N/A 30.55 1035 7 11 N/A
9:52 am 09:52 Cloudy 50 10 48 8.9 93 93 S 6 9 30.55 1034 9 14 N/A
10:52 am 10:52 Cloudy 55 12.8 49 9.4 80 80 S 8 13 30.52 1034 10 16 N/A
11:52 am 11:52 Cloudy 59 15 48 8.9 67 67 SSE 9 15 30.49 1032 10 16 N/A
12:52 pm 12:52 Cloudy 63 17.2 47 8.3 56 56 S 12 19 30.45 1031 10 16 N/A
1:52 pm 13:52 Mostly Cloudy 64 17.8 47 8.3 54 54 S 12 19 30.42 1030 10 16 N/A
2:52 pm 14:52 Mostly Cloudy 62 16.7 48 8.9 60 60 S 12 19 30.39 1029 10 16 N/A
3:52 pm 15:52 Mostly Cloudy 61 16.1 49 9.4 65 65 S 10 17 30.37 1028 10 16 N/A
4:52 pm 16:52 Mostly Cloudy 60 15.6 49 9.4 67 67 SSW 5 7 30.35 1028 10 16 N/A
5:52 pm 17:52 Mostly Cloudy 57 13.9 49 9.4 74 74 S 9 15 30.35 1028 10 16 N/A
6:52 pm 18:52 Mostly Cloudy 54 12.2 48 8.9 80 80 S 6 9 30.35 1028 10 16 N/A
7:52 pm 19:52 Mostly Cloudy 56 13.3 48 8.9 75 75 SSW 5 7 30.35 1028 10 16 N/A
8:52 pm 20:52 Partly Cloudy 52 11.1 47 8.3 83 83 S 9 15 30.33 1027 10 16 N/A
9:52 pm 21:52 Mostly Cloudy 53 11.7 48 8.9 83 83 SSW 7 11 30.32 1027 10 16 N/A
10:52 pm 22:52 Mostly Cloudy 52 11.1 48 8.9 86 86 S 7 11 30.30 1026 10 16 N/A
11:52 pm 23:52 Cloudy 53 11.7 48 8.9 83 83 SSW 5 7 30.29 1026 10 16 N/A

Powered by AerisWeather